Location: Rome
(43.2189°N, 75.4531°W)
Time: 05:05:30
(UTC+00:00)

Tiangong - Visible Passes

Search period start: 09 December 2022 00:00
Search period end: 19 December 2022 00:00
Orbit: 386 x 392 km, 41.5° (Epoch: 08 December)

Date Brightness Start Highest point End Pass type
(mag) Time Alt. Az. Time Alt. Az. Time Alt. Az.
09 Dec -0.9 22:35:31 10° W 22:38:31 38° SSW 22:41:25 11° SE visible
10 Dec 0.5 23:14:36 10° WSW 23:16:51 18° SSW 23:18:48 11° SSE visible
11 Dec 0.0 22:15:58 10° W 22:18:41 26° SSW 22:21:25 10° SE visible
12 Dec 1.2 22:56:06 10° SW 22:56:49 11° SSW 22:57:32 10° SSW visible
13 Dec 0.9 21:56:31 10° WSW 21:58:38 17° SSW 22:00:45 10° SSE visible
